Flag for Romania Weather past 2 weeks in Constanța, Romania

Now
70 °F

Scattered clouds.


Feels Like: 76 °F
Forecast: 65 / 71 °F
Wind: 5 mph from Northeast

Location: Constanta

Current Time: Sep 16, 2014 at 4:55:33 PM

Latest Report: Sep 16, 2014 at 4:00 PM


Visibility: 6 mi

Pressure: 30.04 "Hg

Humidity: 58%

Dew point: 55 °F

Location of ConstanțaLocation

Historic Weather in Constanța — Graph

°F

Constanța temperature yesterday

Maximum temperature yesterday: 77 °F (at 4:00 PM)
Minimum temperature yesterday: 66 °F (at 7:00 AM)
Average temperature yesterday: 72 °F

Past Weeks' High & Low Weather Summary

 TemperatureHumidityPressure
High82 °F (Sep 9, 12:00 PM)98% (Sep 11, 7:00 AM)30.09 "Hg (Sep 11, 7:00 AM)
Low63 °F (Sep 10, 7:00 AM)30% (Sep 9, 12:00 PM)29.79 "Hg (Sep 2, 5:00 AM)
Average73 °F73%29.93 "Hg
* Reported Sep 1 3:00 PM — Sep 16 3:00 PM, Constanța, Weather by CustomWeather, © 2014

Note: Actual official high and low records may vary slightly from our data, if they occured in-between our weather recording intervals... More about our weather records

Advertising

Constanța weather history for previous 24 hours

 ConditionsComfort  
Time TempWeatherWind HumidityBarometerVisibility
3:00 PM
Sep 16
71 °FScattered clouds.5 mph61%30.04 "Hg6 mi
2:00 PM71 °FPartly sunny.5 mph62%30.05 "Hg6 mi
1:00 PM70 °FPartly sunny.7 mph71%30.04 "Hg6 mi
12:00 PM69 °FPartly sunny.6 mph75%30.03 "Hg6 mi
11:00 AM69 °FScattered clouds.6 mph73%30.03 "Hg6 mi
10:00 AM67 °FScattered clouds.5 mph77%30.02 "Hg6 mi
9:00 AM66 °FPartly sunny.2 mph76%30.02 "Hg6 mi
8:00 AM67 °FScattered clouds.2 mph83%30.01 "Hg6 mi
7:00 AM72 °FPassing clouds.2 mph69%29.99 "Hg6 mi
6:00 AM73 °FPassing clouds.5 mph67%29.98 "Hg6 mi
5:00 AM73 °FPassing clouds.2 mph72%29.97 "Hg6 mi
4:00 AM72 °FPassing clouds.3 mph80%29.98 "Hg6 mi
3:00 AM69 °FPassing clouds.1 mph84%29.98 "Hg6 mi
2:00 AM69 °FPassing clouds.No wind84%29.98 "Hg6 mi
1:00 AM72 °FMild.1 mph64%29.98 "HgN/A
12:00 AM72 °FPassing clouds.1 mph62%29.98 "Hg6 mi
11:00 PM
Sep 15
72 °FPassing clouds.2 mph62%29.99 "Hg6 mi
10:00 PM72 °FPassing clouds.2 mph59%29.99 "Hg6 mi
9:00 PM72 °FPassing clouds.2 mph59%29.99 "Hg6 mi
8:00 PM73 °FPassing clouds.1 mph53%29.98 "Hg6 mi
7:00 PM74 °FPassing clouds.1 mph50%29.99 "Hg6 mi
6:00 PM75 °FPassing clouds.2 mph51%29.99 "Hg6 mi
5:00 PM77 °FPassing clouds.1 mph53%30.00 "Hg6 mi
4:00 PM77 °FPassing clouds.2 mph51%30.01 "Hg6 mi
Weather by CustomWeather, © 2014

See weather overviewHow to use our weather pages